Flag for U.S.A. Weather past 2 weeks in Newark, New Jersey, U.S.A.

Now
76 °F

Passing clouds.


Feels Like: 78 °F
Forecast: 72 / 86 °F
Wind: 14 mph from Northwest

Location: Newark International Airport

Current Time: Sep 3, 2014 at 3:46:22 AM

Latest Report: Sep 3, 2014 at 2:51 AM


Visibility: 10 mi

Pressure: 29.86 "Hg

Humidity: 62%

Dew point: 62 °F

Location of NewarkLocation

Historic Weather in Newark — Graph

°F

Newark temperature yesterday

Maximum temperature yesterday: 95 °F (at 1:51 PM)
Minimum temperature yesterday: 76 °F (at 4:51 AM)
Average temperature yesterday: 85 °F

Past Weeks' High & Low Weather Summary

 TemperatureHumidityPressure
High95 °F (Sep 2, 1:51 PM)94% (Sep 2, 6:51 AM)30.27 "Hg (Sep 2, 6:51 AM)
Low61 °F (Aug 29, 3:51 AM)32% (Aug 28, 3:51 PM)29.79 "Hg (Sep 2, 6:51 PM)
Average75 °F64%30.03 "Hg
* Reported Aug 19 1:51 AM — Sep 3 1:51 AM, Newark, Weather by CustomWeather, © 2014

Note: Actual official high and low records may vary slightly from our data, if they occured in-between our weather recording intervals... More about our weather records

Advertising

Newark weather history for previous 24 hours

 ConditionsComfort  
Time TempWeatherWind HumidityBarometerVisibility
1:51 AM
Sep 3
77 °FPartly cloudy.12 mph71%29.85 "Hg10 mi
12:51 AM79 °FPassing clouds.14 mph67%29.83 "Hg10 mi
11:51 PM
Sep 2
82 °FPartly cloudy.20 mph58%29.81 "Hg10 mi
10:51 PM84 °FPartly cloudy.22 mph53%29.79 "Hg10 mi
9:51 PM86 °FPartly cloudy.17 mph57%29.80 "Hg10 mi
8:51 PM87 °FPartly cloudy.15 mph57%29.81 "Hg10 mi
7:51 PM89 °FBroken clouds.15 mph45%29.80 "Hg10 mi
6:51 PM90 °FScattered clouds.15 mph43%29.79 "Hg10 mi
5:51 PM92 °FScattered clouds.10 mph43%29.80 "Hg10 mi
4:51 PM93 °FBroken clouds.13 mph40%29.81 "Hg10 mi
3:51 PM95 °FBroken clouds.21 mph39%29.82 "Hg10 mi
2:51 PM94 °FBroken clouds.13 mph41%29.83 "Hg10 mi
1:51 PM95 °FBroken clouds.15 mph40%29.86 "Hg10 mi
12:51 PM93 °FBroken clouds.7 mph44%29.88 "Hg10 mi
11:51 AM91 °FBroken clouds.7 mph50%29.90 "Hg10 mi
10:51 AM90 °FBroken clouds.9 mph54%29.92 "Hg10 mi
9:51 AM85 °FBroken clouds.8 mph63%29.93 "Hg10 mi
8:51 AM82 °FPartly sunny.5 mph74%29.92 "Hg10 mi
7:51 AM79 °FPartly sunny.7 mph84%29.92 "Hg10 mi
6:51 AM76 °FPassing clouds.5 mph94%29.91 "Hg10 mi
5:51 AM76 °FPassing clouds.6 mph91%29.90 "Hg10 mi
4:51 AM76 °FClear.6 mph91%29.89 "Hg10 mi
3:51 AM77 °FClear.5 mph88%29.90 "Hg10 mi
Weather by CustomWeather, © 2014

See weather overviewHow to use our weather pages